Location: Newark
(34.3481°N, 134.0494°E)
Time: 02:52:24
(UTC+00:00)

deb Explorer IX - Visible Passes

Search period start: 20 January 2020 00:00
Search period end: 30 January 2020 00:00
Orbit: 548 x 1101 km, 38.8° (Epoch: 19 January)

Date Brightness Start Highest point End Pass type
(mag) Time Alt. Az. Time Alt. Az. Time Alt. Az.
20 Jan ? 18:23:22 14° E 18:23:22 14° E 18:24:01 10° E visible
20 Jan ? 20:04:44 54° SW 20:05:15 56° SSW 20:10:41 10° SE visible
21 Jan ? 19:43:49 51° S 19:43:49 51° S 19:48:30 10° SE visible
21 Jan ? 21:26:17 10° WSW 21:29:05 14° SW 21:31:42 10° SSW visible
22 Jan ? 19:22:58 34° SSE 19:22:58 34° SSE 19:26:17 10° SE visible
22 Jan ? 21:04:20 11° WSW 21:06:45 14° SW 21:09:32 10° SSW visible
23 Jan ? 19:02:09 22° SE 19:02:09 22° SE 19:04:04 10° SE visible
23 Jan ? 20:43:31 14° SW 20:44:24 14° SW 20:47:21 10° SSW visible
24 Jan ? 11:19:19 10° SSW 11:20:54 17° SSW 11:20:54 17° SSW visible
24 Jan ? 18:41:23 12° SE 18:41:23 12° SE 18:41:48 10° SE visible
24 Jan ? 20:22:45 14° SW 20:22:45 14° SW 20:25:08 10° SSW visible
25 Jan ? 10:56:59 10° SSW 11:00:11 25° S 11:00:11 25° S visible
25 Jan ? 20:02:01 12° SSW 20:02:01 12° SSW 20:02:54 10° SSW visible
26 Jan ? 10:34:39 10° SSW 10:39:27 32° SSE 10:39:27 32° SSE visible
26 Jan ? 12:20:28 10° WSW 12:20:50 12° WSW 12:20:50 12° WSW visible
27 Jan ? 10:12:21 10° SSW 10:17:53 33° SE 10:18:40 32° SE visible
27 Jan ? 11:58:08 10° WSW 12:00:03 21° WSW 12:00:03 21° WSW visible
28 Jan ? 09:50:02 10° SSW 09:55:27 33° SE 09:57:50 26° ESE visible
28 Jan ? 11:35:48 10° WSW 11:39:13 34° WSW 11:39:13 34° WSW visible
29 Jan ? 09:27:45 10° SSW 09:33:01 32° SE 09:36:58 18° E visible
29 Jan ? 11:13:29 10° WSW 11:18:19 56° WSW 11:18:19 56° WSW visible
